User: anonymous   Login
Location: Oshawa
(43.9000°N, 78.8670°W)
Time: 01:31:48
(UTC-05:00)
Language:

Cosmos 1408 Rocket - Orbit

View from above orbital plane
View from above orbital plane
View from above satellite
View from above satellite

Ground track
Ground track

The orbit data is extracted from the following two-line orbital elements,

1 13553U 82092B   17324.49683942 +.00000111 +00000-0 +10340-4 0  9995
2 13553 082.5691 088.4529 0019999 246.6275 159.5239 14.84146710879133
Epoch (UTC): 20 November 2017 11:55:26
Eccentricity: 0.0019999
inclination: 82.5691°
perigee height: 602 km
apogee height: 630 km
right ascension of ascending node: 88.4529°
argument of perigee: 246.6275°
revolutions per day: 14.84146710
mean anomaly at epoch: 159.5239°
orbit number at epoch: 87913

The dashed part of the orbit path shows where the satellite is in the earth's shadow,  

DLR